• Em Portugal
  • Lista de países
  • Para 7 dias
  • Temperatura da água
  • Mapas de satélite
  • Mapa do tempo
  • Widgets de tempo
  • user-avatar
    Iniciar Sessão

    Previsão horária em Ajdyn

    Hoje, 24 Setembro, Segunda-feira

    Tempo Temperatura Precipitação Vento Pressão Humidade
    00:00 +25°C° 0 mm 1 m/s 759 mmHg 51%
    01:00 +25°C° 0 mm 1 m/s 759 mmHg 50%
    02:00 +24°C° 0 mm 1 m/s 759 mmHg 51%
    03:00 +24°C° 0 mm 1 m/s 759 mmHg 51%
    04:00 +24°C° 0 mm 1 m/s 759 mmHg 50%
    05:00 +24°C° 0 mm 1 m/s 759 mmHg 50%
    06:00 +26°C° 0 mm 1 m/s 759 mmHg 45%
    07:00 +28°C° 0 mm 1 m/s 759 mmHg 41%
    08:00 +28°C° 0 mm 0 m/s 758 mmHg 37%
    09:00 +32°C° 0 mm 1 m/s 758 mmHg 33%
    10:00 +34°C° 0 mm 1 m/s 758 mmHg 29%
    11:00 +37°C° 0 mm 2 m/s 758 mmHg 26%
    12:00 +37°C° 0 mm 2 m/s 758 mmHg 24%
    13:00 +38°C° 0 mm 3 m/s 758 mmHg 23%
    14:00 +38°C° 0 mm 3 m/s 758 mmHg 21%
    15:00 +37°C° 0 mm 3 m/s 758 mmHg 25%
    16:00 +35°C° 0 mm 3 m/s 757 mmHg 29%
    17:00 +34°C° 0 mm 2 m/s 757 mmHg 33%
    18:00 +30°C° 0 mm 2 m/s 757 mmHg 43%
    19:00 +27°C° 0 mm 1 m/s 758 mmHg 54%
    20:00 +25°C° 0 mm 1 m/s 758 mmHg 64%
    21:00 +24°C° 0 mm 1 m/s 758 mmHg 68%
    22:00 +23°C° 0 mm 1 m/s 758 mmHg 71%
    23:00 +21°C° 0 mm 0 m/s 758 mmHg 74%

    Amanhã, 25 Setembro, Terça-feira

    Tempo Temperatura Precipitação Vento Pressão Humidade
    00:00 +23°C° 0 mm 1 m/s 758 mmHg 75%
    01:00 +22°C° 0 mm 1 m/s 758 mmHg 75%
    02:00 +22°C° 0 mm 1 m/s 758 mmHg 75%
    03:00 +22°C° 0 mm 1 m/s 758 mmHg 73%
    04:00 +21°C° 0 mm 1 m/s 758 mmHg 72%
    05:00 +20°C° 0 mm 2 m/s 757 mmHg 70%
    06:00 +23°C° 0 mm 2 m/s 758 mmHg 63%
    07:00 +24°C° 0 mm 2 m/s 758 mmHg 56%
    08:00 +26°C° 0 mm 3 m/s 758 mmHg 49%
    09:00 +28°C° 0 mm 3 m/s 758 mmHg 42%
    10:00 +30°C° 0 mm 3 m/s 758 mmHg 36%
    11:00 +33°C° 0 mm 3 m/s 758 mmHg 29%
    12:00 +34°C° 0 mm 4 m/s 758 mmHg 28%
    13:00 +35°C° 0 mm 4 m/s 758 mmHg 27%
    14:00 +36°C° 0 mm 5 m/s 757 mmHg 26%
    15:00 +35°C° 0 mm 5 m/s 757 mmHg 30%
    16:00 +33°C° 0 mm 6 m/s 757 mmHg 34%
    17:00 +32°C° 0 mm 6 m/s 757 mmHg 38%
    18:00 +28°C° 0 mm 6 m/s 758 mmHg 46%
    19:00 +26°C° 0 mm 6 m/s 758 mmHg 55%
    20:00 +22°C° 0 mm 6 m/s 759 mmHg 63%
    21:00 +21°C° 0 mm 6 m/s 759 mmHg 66%
    22:00 +20°C° 0 mm 6 m/s 759 mmHg 69%
    23:00 +19°C° 0 mm 6 m/s 759 mmHg 72%

    Depois de amanhã, 26 Setembro, Quarta-feira

    Tempo Temperatura Precipitação Vento Pressão Humidade
    00:00 +19°C° 0 mm 6 m/s 759 mmHg 73%
    01:00 +17°C° 0 mm 6 m/s 759 mmHg 73%
    02:00 +17°C° 0 mm 6 m/s 759 mmHg 74%
    03:00 +17°C° 0 mm 6 m/s 759 mmHg 74%
    04:00 +16°C° 0 mm 6 m/s 759 mmHg 75%
    05:00 +16°C° 0 mm 6 m/s 759 mmHg 75%
    06:00 +17°C° 0 mm 6 m/s 759 mmHg 70%
    07:00 +17°C° 0 mm 7 m/s 759 mmHg 64%
    08:00 +18°C° 0 mm 7 m/s 759 mmHg 58%
    09:00 +21°C° 0 mm 7 m/s 759 mmHg 51%
    10:00 +23°C° 0 mm 7 m/s 759 mmHg 44%
    11:00 +24°C° 0 mm 7 m/s 759 mmHg 37%
    12:00 +26°C° 0 mm 7 m/s 759 mmHg 34%
    13:00 +27°C° 0 mm 8 m/s 758 mmHg 31%
    14:00 +28°C° 0 mm 8 m/s 758 mmHg 29%
    15:00 +27°C° 0 mm 8 m/s 758 mmHg 31%
    16:00 +26°C° 0 mm 8 m/s 758 mmHg 33%
    17:00 +24°C° 0 mm 9 m/s 757 mmHg 34%
    18:00 +22°C° 0 mm 8 m/s 758 mmHg 39%
    19:00 +20°C° 0 mm 8 m/s 758 mmHg 43%
    20:00 +17°C° 0 mm 8 m/s 758 mmHg 48%
    21:00 +17°C° 0 mm 7 m/s 758 mmHg 50%
    22:00 +16°C° 0 mm 7 m/s 758 mmHg 52%
    23:00 +15°C° 0 mm 7 m/s 758 mmHg 54%

    27 Setembro, Quinta-feira

    Tempo Temperatura Precipitação Vento Pressão Humidade
    00:00 +15°C° 0 mm 7 m/s 757 mmHg 54%
    01:00 +16°C° 0 mm 7 m/s 757 mmHg 53%
    02:00 +16°C° 0 mm 6 m/s 756 mmHg 53%
    03:00 +16°C° 0.1 mm 6 m/s 756 mmHg 55%
    04:00 +16°C° 0.1 mm 6 m/s 755 mmHg 57%
    05:00 +16°C° 0.1 mm 6 m/s 755 mmHg 60%
    06:00 +16°C° 0.5 mm 6 m/s 755 mmHg 59%
    07:00 +17°C° 0.5 mm 6 m/s 755 mmHg 59%
    08:00 +17°C° 0.5 mm 6 m/s 754 mmHg 59%
    09:00 +20°C° 0.4 mm 6 m/s 754 mmHg 53%
    10:00 +23°C° 0.4 mm 6 m/s 754 mmHg 47%
    11:00 +26°C° 0.4 mm 5 m/s 754 mmHg 41%
    12:00 +25°C° 0.6 mm 5 m/s 754 mmHg 47%
    13:00 +23°C° 0.6 mm 4 m/s 754 mmHg 53%
    14:00 +22°C° 0.6 mm 3 m/s 754 mmHg 58%
    15:00 +22°C° 0.6 mm 3 m/s 754 mmHg 64%
    16:00 +21°C° 0.6 mm 3 m/s 754 mmHg 69%
    17:00 +21°C° 0.6 mm 3 m/s 755 mmHg 74%
    18:00 +20°C° 0.5 mm 3 m/s 755 mmHg 77%
    19:00 +19°C° 0.5 mm 3 m/s 756 mmHg 81%
    20:00 +18°C° 0.5 mm 3 m/s 756 mmHg 84%
    21:00 +18°C° 0.2 mm 3 m/s 756 mmHg 85%
    22:00 +18°C° 0.2 mm 3 m/s 757 mmHg 86%
    23:00 +18°C° 0.2 mm 4 m/s 757 mmHg 87%

    28 Setembro, Sexta-feira

    Tempo Temperatura Precipitação Vento Pressão Humidade
    00:00 +17°C° 0.2 mm 4 m/s 757 mmHg 87%
    01:00 +17°C° 0.2 mm 4 m/s 757 mmHg 88%
    02:00 +17°C° 0.2 mm 4 m/s 757 mmHg 88%
    03:00 +17°C° 0.4 mm 4 m/s 757 mmHg 87%
    04:00 +17°C° 0.4 mm 4 m/s 757 mmHg 86%
    05:00 +17°C° 0.4 mm 4 m/s 757 mmHg 86%
    06:00 +18°C° 0.6 mm 4 m/s 757 mmHg 82%
    07:00 +19°C° 0.6 mm 4 m/s 757 mmHg 79%
    08:00 +20°C° 0.6 mm 4 m/s 757 mmHg 76%
    09:00 +21°C° 0.6 mm 4 m/s 757 mmHg 70%
    10:00 +23°C° 0.6 mm 5 m/s 758 mmHg 64%
    11:00 +25°C° 0.6 mm 5 m/s 758 mmHg 58%
    12:00 +24°C° 0.5 mm 6 m/s 758 mmHg 57%
    13:00 +24°C° 0.5 mm 6 m/s 758 mmHg 57%
    14:00 +26°C° 0.5 mm 6 m/s 757 mmHg 56%
    15:00 +24°C° 0.3 mm 6 m/s 757 mmHg 57%
    16:00 +24°C° 0.3 mm 6 m/s 757 mmHg 58%
    17:00 +23°C° 0.3 mm 5 m/s 757 mmHg 59%
    18:00 +22°C° 0.5 mm 5 m/s 758 mmHg 65%
    19:00 +21°C° 0.5 mm 5 m/s 758 mmHg 71%
    20:00 +19°C° 0.5 mm 4 m/s 758 mmHg 78%
    21:00 +19°C° 0.4 mm 4 m/s 758 mmHg 78%
    22:00 +19°C° 0.4 mm 4 m/s 758 mmHg 79%
    23:00 +19°C° 0.4 mm 4 m/s 758 mmHg 79%

    29 Setembro, Sábado

    Tempo Temperatura Precipitação Vento Pressão Humidade
    00:00 +19°C° 0.5 mm 4 m/s 758 mmHg 80%
    01:00 +18°C° 0.5 mm 4 m/s 758 mmHg 82%
    02:00 +18°C° 0.5 mm 4 m/s 758 mmHg 83%
    03:00 +18°C° 0.2 mm 4 m/s 758 mmHg 84%
    04:00 +17°C° 0.2 mm 4 m/s 758 mmHg 84%
    05:00 +17°C° 0.2 mm 4 m/s 758 mmHg 85%
    06:00 +18°C° 0.2 mm 4 m/s 758 mmHg 81%
    07:00 +19°C° 0.2 mm 4 m/s 758 mmHg 76%
    08:00 +20°C° 0.2 mm 3 m/s 758 mmHg 71%
    09:00 +21°C° 1 mm 3 m/s 758 mmHg 71%
    10:00 +21°C° 1 mm 3 m/s 758 mmHg 70%
    11:00 +22°C° 1 mm 3 m/s 758 mmHg 69%
    12:00 +23°C° 1.4 mm 2 m/s 758 mmHg 71%
    13:00 +21°C° 1.4 mm 2 m/s 758 mmHg 73%
    14:00 +21°C° 1.4 mm 2 m/s 757 mmHg 74%
    15:00 +21°C° 0.4 mm 2 m/s 758 mmHg 73%
    16:00 +22°C° 0.4 mm 1 m/s 758 mmHg 72%
    17:00 +23°C° 0.4 mm 1 m/s 758 mmHg 71%
    18:00 +21°C° 0.2 mm 1 m/s 758 mmHg 76%
    19:00 +20°C° 0.2 mm 1 m/s 758 mmHg 81%
    20:00 +19°C° 0.2 mm 1 m/s 758 mmHg 86%
    21:00 +19°C° 0.1 mm 1 m/s 759 mmHg 87%
    22:00 +19°C° 0.1 mm 1 m/s 759 mmHg 88%
    23:00 +18°C° 0.1 mm 1 m/s 759 mmHg 89%
    Mostrar mais